Weather in Buruny

Russia / Astrakhan Oblast     46°11′06″N   47°15′13″E
temp.,
°C
wind,
m/s
gust,
m/s
humid.,
%
clouds,
%
prec.,
mm/h
press.,
hPa
HPBL,
m
1 august, sun
sun101:00+25sse355268 0.0 101195
04:00+24sse3357100 0.0 101145
07:00+26se345611 0.0 1012191
10:00+31se34375 0.0 10121091
13:00+35se55305 0.0 10112021
16:00+35se65282 0.2 10101936
19:00+34se65260 0.0 10101209
22:00+28s47390 0.0 1011166
2 august, mon
mon201:00+26s34457 0.0 101164
04:00+27sse2243100 0.0 101121
07:00+28ene234043 0.0 101295
10:00+34ese452073 0.0 1012724
13:00+38sse6713100 0.0 10112777
16:00+38sse561299 0.0 10102244
19:00+37se661688 0.0 1010972
22:00+30se473537 0.0 1011108
3 august, tue
tue301:00+27sse454598 0.0 101086
04:00+26se224351 0.0 101011
07:00+28w11365 0.0 101212
10:00+35se23182 0.0 1012632
13:00+39se46100 0.0 10112811
16:00+40sse7690 0.0 10093940
19:00+38sse67111 0.0 1009844
22:00+31s57210 0.0 101099
4 august, wed
wed401:00+28ssw45310 0.0 101068
04:00+26ssw33370 0.0 101018
07:00+28ssw22320 0.0 101152
10:00+36s34162 0.0 1011673
13:00+40s34101 0.0 10103017
16:00+41se33105 0.0 10093760
19:00+37sse771569 0.0 1009658
22:00+30sse34295 0.0 101142
5 august, thu
thu501:00+28se11335 0.0 101111
04:00+28n5113811 0.0 1011214
07:00+28n594441 0.0 1012391
10:00+30n111140100 0.0 10131004
13:00+28n6647100 0.0 1013281
16:00+33nw453081 0.0 10131834
19:00+33nne65290 0.0 10121812
22:00+29ne4536100 0.0 101365